Epoch,demod_status_bits,ebno,lock_status,signal_level,viterbi_ber
1663837030,,12.2,0xc0504d,-39.4,
1663837031,C;S;V;F,,0x00c000,-39.2,1.51e-6
1663837032,C;S;V;F,11.9,0x00c000,-39.1,3.47e-6
1663837033,C;S;V;F,12.3,0x00c000,,2.57e-6
1663837034,C;S;V;F,12.8,0x00c000,-38.8,1.36e-6
1663837035,C;S;V;F,12.1,0x00c000,-39.6,1.05e-6
1663837036,C;S;V;F,12.3,0x00c000,-39.0,1.81e-6
1663837037,C;S;V;F,13.1,0x00c000,-38.8,7.57e-7
1663837038,C;S;V;F,12.7,0x00c000,-39.0,4.54e-7
1663837039,C;S;V;F,12.6,0x00c000,-39.1,6.06e-7
1663837040,C;S;V;F,12.6,0x00c000,-38.8,9.09e-7
1663837041,C;S;V;F,12.6,0x00c000,-38.7,3.03e-7
1663837042,C;S;V;F,12.9,0x00c000,-38.9,3.03e-7
1663837043,C;S;V;F,12.9,0x00c000,-38.8,3.03e-7
1663837044,C;S;V;F,13.1,0x00c000,-38.7,
1663837045,,12.7,0x00c000,-38.9,3.03e-7
1663837046,C;S;V;F,12.9,0x00c000,-38.8,1.51e-7
1663837047,C;S;V;F,13.2,0x00c000,-38.7,6.06e-7
1663837048,C;S;V;F,13.2,0x00c000,-38.4,4.54e-7
1663837049,C;S;V;F,,0x00c000,-38.5,0.00e-0
1663837050,C;S;V;F,13.2,0x00c000,-38.4,1.51e-7
1663837051,C;S;V;F,13.3,0x00c000,,1.51e-7
1663837052,C;S;V;F,13.0,0x00c000,-38.8,0.00e-0
1663837053,C;S;V;F,13.3,0x00c000,-38.5,0.00e-0
1663837054,C;S;V;F,13.4,0x00c000,-38.4,0.00e-0
1663837055,C;S;V;F,13.5,0x00c000,-38.3,1.51e-7
1663837056,C;S;V;F,13.6,0x00c000,-38.4,1.51e-7
1663837057,C;S;V;F,13.5,0x00c000,-38.3,0.00e-0
1663837058,C;S;V;F,13.7,0x00c000,-38.3,
1663837059,C;S;V;F,14.0,0x00c000,-38.0,0.00e-0
1663837060,,14.0,0x00c000,-38.0,0.00e-0
1663837061,C;S;V;F,13.8,0x00c000,-38.0,0.00e-0
1663837062,C;S;V;F,14.0,0x00c000,-37.9,0.00e-0
1663837063,C;S;V;F,,0x00c000,-38.0,0.00e-0
1663837064,C;S;V;F,13.9,0x00c000,,0.00e-0
1663837065,C;S;V;F,13.9,0x00c000,-37.9,0.00e-0
1663837066,C;S;V;F,13.6,0x00c000,-38.2,0.00e-0
1663837067,C;S;V;F,13.6,0x00c000,-38.1,0.00e-0
1663837068,C;S;V;F,13.8,0x00c000,-38.0,0.00e-0
1663837069,C;S;V;F,13.7,0x00c000,-38.0,0.00e-0
1663837070,C;S;V;F,13.9,0x00c000,-37.9,0.00e-0
1663837071,C;S;V;F,13.9,0x00c000,-38.0,0.00e-0
1663837072,C;S;V;F,13.9,0x00c000,-37.9,0.00e-0
1663837073,C;S;V;F,14.0,0x00c000,-38.0,0.00e-0
1663837074,,13.9,0x00c000,-38.0,
1663837075,C;S;V;F,13.9,0x00c000,-38.0,0.00e-0
1663837076,C;S;V;F,13.8,0x00c000,-38.0,0.00e-0
1663837077,C;S;V;F,13.7,0x00c000,-38.0,0.00e-0
1663837078,C;S;V;F,13.7,0x00c000,-38.1,0.00e-0
1663837079,C;S;V;F,,0x00c000,-38.0,0.00e-0
1663837080,C;S;V;F,13.9,0x00c000,-38.0,0.00e-0
1663837081,C;S;V;F,14.0,0x00c000,,0.00e-0
1663837082,C;S;V;F,13.9,0x00c000,-38.0,0.00e-0
1663837084,C;S;V;F,13.7,0x00c000,-38.0,0.00e-0
1663837085,C;S;V;F,13.8,0x00c000,-38.0,0.00e-0
1663837086,C;S;V;F,13.9,0x00c000,-38.0,0.00e-0
1663837087,C;S;V;F,14.1,0x00c000,-37.9,0.00e-0
1663837088,C;S;V;F,14.0,0x00c000,-38.0,0.00e-0
1663837089,,13.9,0x00c000,-37.9,
1663837090,C;S;V;F,14.2,0x00c000,-37.8,0.00e-0
1663837091,C;S;V;F,14.3,0x00c000,-38.0,0.00e-0
1663837092,C;S;V;F,14.1,0x00c000,-38.0,0.00e-0
1663837093,C;S;V;F,14.0,0x00c000,-37.9,0.00e-0
1663837094,C;S;V;F,,0x00c000,-38.0,0.00e-0
1663837095,C;S;V;F,14.0,0x00c000,,0.00e-0
1663837096,C;S;V;F,14.0,0x00c000,-37.9,0.00e-0
1663837097,C;S;V;F,14.1,0x00c000,-38.0,0.00e-0
1663837098,C;S;V;F,14.0,0x00c000,-37.9,0.00e-0
1663837099,C;S;V;F,14.2,0x00c000,-37.9,0.00e-0
1663837100,C;S;V;F,14.3,0x00c000,-37.9,0.00e-0
1663837101,C;S;V;F,14.1,0x00c000,-37.9,0.00e-0
1663837102,C;S;V;F,14.2,0x00c000,-37.8,0.00e-0
1663837103,C;S;V;F,14.3,0x00c000,-37.9,0.00e-0
1663837104,C;S;V;F,14.2,0x00c000,-37.6,
1663837105,,14.3,0x00c000,-37.8,0.00e-0
1663837106,C;S;V;F,14.3,0x00c000,-37.6,0.00e-0
1663837107,C;S;V;F,14.6,0x00c000,-37.6,0.00e-0
1663837108,C;S;V;F,14.6,0x00c000,-37.6,0.00e-0
1663837109,C;S;V;F,,0x00c000,-37.7,0.00e-0
1663837110,C;S;V;F,14.5,0x00c000,-37.6,0.00e-0
1663837111,C;S;V;F,14.5,0x00c000,,0.00e-0
1663837112,C;S;V;F,14.4,0x00c000,-37.5,0.00e-0
1663837113,C;S;V;F,14.5,0x00c000,-37.3,0.00e-0
1663837114,C;S;V;F,14.7,0x00c000,-37.2,0.00e-0
1663837115,C;S;V;F,14.8,0x00c000,-37.3,0.00e-0
1663837116,C;S;V;F,14.8,0x00c000,-37.2,0.00e-0
1663837117,C;S;V;F,14.8,0x00c000,-37.1,0.00e-0
1663837118,C;S;V;F,15.1,0x00c000,-37.2,0.00e-0
1663837119,C;S;V;F,14.8,0x00c000,-37.2,0.00e-0
1663837120,C;S;V;F,14.9,0x00c000,-37.2,0.00e-0
1663837121,C;S;V;F,14.9,0x00c000,-37.2,0.00e-0
1663837122,C;S;V;F,14.7,0x00c000,-37.3,0.00e-0
1663837123,,14.8,0x00c000,-37.3,
1663837124,C;S;V;F,14.7,0x00c000,-37.3,0.00e-0
1663837125,C;S;V;F,14.9,0x00c000,-37.2,0.00e-0
1663837126,C;S;V;F,,0x00c000,-37.2,0.00e-0
1663837127,C;S;V;F,14.9,0x00c000,,0.00e-0
1663837128,C;S;V;F,14.6,0x00c000,-37.3,0.00e-0
1663837129,C;S;V;F,14.8,0x00c000,-37.2,0.00e-0
1663837130,C;S;V;F,14.8,0x00c000,-37.3,0.00e-0
1663837131,C;S;V;F,14.7,0x00c000,-37.5,0.00e-0
1663837132,C;S;V;F,14.6,0x00c000,-37.4,0.00e-0
1663837133,C;S;V;F,14.7,0x00c000,-37.3,0.00e-0
1663837134,C;S;V;F,14.9,0x00c000,-37.2,0.00e-0
1663837135,C;S;V;F,14.9,0x00c000,-37.5,0.00e-0
1663837136,C;S;V;F,14.9,0x00c000,-37.2,0.00e-0
1663837137,C;S;V;F,14.8,0x00c000,-37.2,0.00e-0
1663837138,C;S;V;F,15.0,0x00c000,-37.2,0.00e-0
1663837139,C;S;V;F,15.0,0x00c000,-37.1,0.00e-0
1663837140,C;S;V;F,14.9,0x00c000,-37.1,
1663837141,,15.2,0x00c000,-37.0,0.00e-0
1663837142,C;S;V;F,15.2,0x00c000,-36.8,0.00e-0
1663837143,C;S;V;F,15.1,0x00c000,-36.7,0.00e-0
1663837144,C;S;V;F,,0x00c000,-37.0,0.00e-0
1663837145,C;S;V;F,15.4,0x00c000,,0.00e-0
1663837146,,,0x00c000,-36.9,
1663837147,C;S;V;F,15.3,0x00c000,,0.00e-0
1663837148,C;S;V;F,15.2,0x00c000,-36.8,0.00e-0
1663837149,C;S;V;F,15.4,0x00c000,-36.8,0.00e-0
1663837150,C;S;V;F,15.4,0x00c000,-36.7,0.00e-0
1663837151,C;S;V;F,15.5,0x00c000,-36.7,0.00e-0
1663837152,C;S;V;F,15.6,0x00c000,-36.6,0.00e-0
1663837153,C;S;V;F,15.7,0x00c000,-36.4,0.00e-0
1663837154,C;S;V;F,15.7,0x00c000,-36.4,
1663837155,C;S;V;F,15.6,0x00c000,-36.4,0.00e-0
1663837156,,15.6,0x00c000,-36.3,0.00e-0
1663837157,C;S;V;F,15.7,0x00c000,-36.3,0.00e-0
1663837158,C;S;V;F,15.9,0x00c000,-36.3,0.00e-0
1663837159,C;S;V;F,,0x00c000,-36.4,0.00e-0
1663837160,C;S;V;F,15.7,0x00c000,-36.4,0.00e-0
1663837161,C;S;V;F,15.6,0x00c000,,0.00e-0
1663837162,C;S;V;F,15.8,0x00c000,-36.4,0.00e-0
1663837163,C;S;V;F,15.6,0x00c000,-36.3,0.00e-0
1663837164,C;S;V;F,16.0,0x00c000,-36.3,0.00e-0
1663837165,C;S;V;F,15.8,0x00c000,-36.4,0.00e-0
1663837166,C;S;V;F,15.6,0x00c000,-36.3,0.00e-0
1663837167,C;S;V;F,15.7,0x00c000,-36.4,0.00e-0
1663837168,C;S;V;F,15.9,0x00c000,-36.4,0.00e-0
1663837169,C;S;V;F,15.7,0x00c000,-36.3,0.00e-0
1663837170,C;S;V;F,16.0,0x00c000,-36.2,0.00e-0
1663837171,C;S;V;F,16.0,0x00c000,-36.3,0.00e-0
1663837172,C;S;V;F,15.8,0x00c000,-36.2,0.00e-0
1663837173,C;S;V;F,15.9,0x00c000,-36.2,
1663837174,C;S;V;F,16.1,0x00c000,-36.0,0.00e-0
1663837175,,15.9,0x00c000,-36.2,0.00e-0
1663837176,C;S;V;F,16.1,0x00c000,-36.1,0.00e-0
1663837177,C;S;V;F,16.1,0x00c000,-36.2,0.00e-0
1663837178,C;S;V;F,,0x00c000,-36.0,0.00e-0
1663837179,C;S;V;F,16.0,0x00c000,,0.00e-0
1663837180,C;S;V;F,15.9,0x00c000,-36.2,0.00e-0
1663837181,C;S;V;F,15.9,0x00c000,-36.2,0.00e-0
1663837182,C;S;V;F,15.6,0x00c000,-36.2,0.00e-0
1663837183,C;S;V;F,15.4,0x00c000,-36.4,0.00e-0
1663837184,C;S;V;F,15.6,0x00c000,-36.3,0.00e-0
1663837185,C;S;V;F,15.6,0x00c000,-36.4,0.00e-0
1663837186,C;S;V;F,15.6,0x00c000,-36.3,0.00e-0
1663837187,C;S;V;F,15.6,0x00c000,-36.3,
1663837188,C;S;V;F,15.6,0x00c000,-36.4,0.00e-0
1663837189,,15.8,0x00c000,-36.4,0.00e-0
1663837190,C;S;V;F,15.7,0x00c000,-36.4,0.00e-0
1663837191,C;S;V;F,15.7,0x00c000,-36.5,0.00e-0
1663837192,C;S;V;F,15.9,0x00c000,-36.4,0.00e-0
1663837193,C;S;V;F,15.8,0x00c000,-36.4,0.00e-0
1663837194,C;S;V;F,,0x00c000,-36.5,0.00e-0
1663837195,C;S;V;F,15.8,0x00c000,,0.00e-0
1663837196,C;S;V;F,15.8,0x00c000,-36.5,0.00e-0
1663837197,C;S;V;F,15.7,0x00c000,-36.7,0.00e-0
1663837198,C;S;V;F,15.6,0x00c000,-36.6,0.00e-0
1663837199,C;S;V;F,15.6,0x00c000,-36.4,0.00e-0
1663837200,C;S;V;F,15.7,0x00c000,-36.4,0.00e-0
1663837201,C;S;V;F,15.7,0x00c000,-36.4,0.00e-0
1663837202,C;S;V;F,15.9,0x00c000,-36.4,0.00e-0
1663837203,C;S;V;F,15.8,0x00c000,-36.3,0.00e-0
1663837204,C;S;V;F,15.8,0x00c000,-36.4,0.00e-0
1663837205,,15.8,0x00c000,-36.4,
1663837206,C;S;V;F,15.7,0x00c000,-36.5,0.00e-0
1663837207,C;S;V;F,,0x00c000,,0.00e-0
1663837209,,15.5,0x00c000,-36.9,
1663837210,C;S;V;F,,0x00c000,-36.7,0.00e-0
1663837211,C;S;V;F,15.4,0x00c000,-36.7,0.00e-0
1663837212,C;S;V;F,15.6,0x00c000,-36.4,0.00e-0
1663837213,C;S;V;F,15.8,0x00c000,,0.00e-0
1663837214,C;S;V;F,15.7,0x00c000,-36.4,0.00e-0
1663837215,C;S;V;F,15.9,0x00c000,-36.4,0.00e-0
1663837216,C;S;V;F,15.9,0x00c000,-36.3,0.00e-0
1663837217,C;S;V;F,15.8,0x00c000,-36.3,0.00e-0
1663837218,C;S;V;F,16.0,0x00c000,-36.3,0.00e-0
1663837219,C;S;V;F,16.1,0x00c000,-36.2,
1663837220,,16.2,0x00c000,-36.3,0.00e-0
1663837221,C;S;V;F,16.0,0x00c000,-36.2,0.00e-0
1663837222,C;S;V;F,16.1,0x00c000,-36.2,0.00e-0
1663837223,C;S;V;F,,0x00c000,-36.2,0.00e-0
1663837224,C;S;V;F,16.0,0x00c000,-36.0,0.00e-0
1663837225,C;S;V;F,16.0,0x00c000,,0.00e-0
1663837226,C;S;V;F,16.1,0x00c000,-36.2,0.00e-0
1663837227,C;S;V;F,16.1,0x00c000,-36.1,0.00e-0
1663837228,C;S;V;F,16.0,0x00c000,-36.2,0.00e-0
1663837229,C;S;V;F,16.2,0x00c000,-35.9,0.00e-0
1663837230,C;S;V;F,16.2,0x00c000,-35.8,0.00e-0
1663837231,C;S;V;F,16.4,0x00c000,-35.9,0.00e-0
1663837232,C;S;V;F,16.4,0x00c000,-35.7,0.00e-0
1663837233,C;S;V;F,16.5,0x00c000,-35.6,0.00e-0
1663837234,C;S;V;F,16.4,0x00c000,-35.6,0.00e-0
1663837235,C;S;V;F,16.7,0x00c000,-35.5,0.00e-0
1663837236,C;S;V;F,16.9,0x00c000,-35.3,0.00e-0
1663837237,C;S;V;F,17.2,0x00c000,-34.8,
1663837238,C;S;V;F,17.1,0x00c000,-34.9,0.00e-0
1663837239,,17.5,0x00c000,-34.6,0.00e-0
1663837240,C;S;V;F,17.3,0x00c000,-34.7,0.00e-0
1663837241,C;S;V;F,17.6,0x00c000,-34.6,0.00e-0
1663837242,C;S;V;F,,0x00c000,-34.5,0.00e-0
1663837243,C;S;V;F,17.6,0x00c000,-34.2,0.00e-0
1663837244,C;S;V;F,17.6,0x00c000,,0.00e-0
1663837245,C;S;V;F,17.6,0x00c000,-34.3,0.00e-0
1663837246,C;S;V;F,17.6,0x00c000,-34.1,0.00e-0
1663837247,C;S;V;F,17.9,0x00c000,-34.0,0.00e-0
1663837248,C;S;V;F,17.7,0x00c000,-34.0,0.00e-0
1663837249,C;S;V;F,17.7,0x00c000,-34.0,0.00e-0
1663837250,C;S;V;F,17.7,0x00c000,-34.0,0.00e-0
1663837251,C;S;V;F,17.7,0x00c000,-34.2,0.00e-0
1663837252,C;S;V;F,17.7,0x00c000,-34.2,0.00e-0
1663837253,C;S;V;F,17.8,0x00c000,-34.2,0.00e-0
1663837254,C;S;V;F,17.7,0x00c000,-33.9,0.00e-0
1663837255,C;S;V;F,17.8,0x00c000,-33.9,0.00e-0
1663837256,C;S;V;F,17.8,0x00c000,-34.0,0.00e-0
1663837257,C;S;V;F,17.8,0x00c000,-34.0,0.00e-0
1663837258,C;S;V;F,17.7,0x00c000,-34.0,0.00e-0
1663837259,,17.9,0x00c000,-34.0,
1663837260,C;S;V;F,17.9,0x00c000,-33.9,0.00e-0
1663837261,C;S;V;F,18.1,0x00c000,-33.7,0.00e-0
1663837262,C;S;V;F,17.9,0x00c000,-33.6,0.00e-0
1663837263,C;S;V;F,18.0,0x00c000,-33.7,0.00e-0
1663837264,C;S;V;F,18.1,0x00c000,-33.7,0.00e-0
1663837265,C;S;V;F,,0x00c000,-33.6,0.00e-0
1663837266,C;S;V;F,18.1,0x00c000,,0.00e-0
1663837267,C;S;V;F,17.9,0x00c000,-33.7,0.00e-0
1663837268,C;S;V;F,18.0,0x00c000,-33.9,0.00e-0
1663837269,C;S;V;F,17.8,0x00c000,-34.0,0.00e-0
1663837270,C;S;V;F,17.8,0x00c000,-34.0,0.00e-0
1663837272,C;S;V;F,17.9,0x00c000,-34.0,0.00e-0
1663837273,C;S;V;F,17.8,0x00c000,-33.8,
1663837274,,17.8,0x00c000,-34.0,0.00e-0
1663837275,C;S;V;F,17.5,0x00c000,-34.1,0.00e-0
1663837276,C;S;V;F,17.5,0x00c000,-34.4,0.00e-0
1663837277,C;S;V;F,,0x00c000,-34.4,0.00e-0
1663837278,C;S;V;F,17.3,0x00c000,-34.2,0.00e-0
1663837279,C;S;V;F,17.8,0x00c000,-34.0,0.00e-0
1663837280,C;S;V;F,17.9,0x00c000,,0.00e-0
1663837281,C;S;V;F,18.1,0x00c000,-33.9,0.00e-0
1663837282,C;S;V;F,17.8,0x00c000,-33.9,0.00e-0
1663837283,C;S;V;F,17.9,0x00c000,-33.8,0.00e-0
1663837284,C;S;V;F,18.0,0x00c000,-33.7,0.00e-0
1663837285,C;S;V;F,18.0,0x00c000,-33.8,0.00e-0
1663837286,C;S;V;F,17.8,0x00c000,-33.7,0.00e-0
1663837287,C;S;V;F,17.8,0x00c000,-33.9,0.00e-0
1663837288,C;S;V;F,17.9,0x00c000,-33.7,0.00e-0
1663837289,C;S;V;F,18.1,0x00c000,-33.7,0.00e-0
1663837290,,18.0,0x00c000,-33.6,
1663837291,C;S;V;F,18.2,0x00c000,-33.6,0.00e-0
1663837292,C;S;V;F,18.2,0x00c000,-33.2,0.00e-0
1663837293,C;S;V;F,18.1,0x00c000,-33.2,0.00e-0
1663837294,C;S;V;F,,0x00c000,-33.3,0.00e-0
1663837295,C;S;V;F,18.3,0x00c000,,0.00e-0
1663837296,C;S;V;F,18.3,0x00c000,-33.1,0.00e-0
1663837297,C;S;V;F,18.4,0x00c000,-33.0,0.00e-0
1663837298,C;S;V;F,18.3,0x00c000,-33.0,0.00e-0
1663837299,C;S;V;F,18.2,0x00c000,-33.2,0.00e-0
1663837300,C;S;V;F,18.4,0x00c000,-33.1,0.00e-0
1663837301,C;S;V;F,18.4,0x00c000,-33.2,0.00e-0
1663837302,C;S;V;F,18.2,0x00c000,-33.5,0.00e-0
1663837303,C;S;V;F,18.2,0x00c000,-33.5,0.00e-0
1663837304,C;S;V;F,17.9,0x00c000,-33.5,0.00e-0
1663837305,,18.0,0x00c000,-33.8,
1663837306,C;S;V;F,18.0,0x00c000,-33.9,0.00e-0
1663837307,C;S;V;F,17.9,0x00c000,-34.0,0.00e-0
1663837308,C;S;V;F,17.6,0x00c000,-34.0,0.00e-0
1663837309,C;S;V;F,17.8,0x00c000,-34.0,0.00e-0
1663837310,C;S;V;F,,0x00c000,-34.0,0.00e-0
1663837311,C;S;V;F,17.6,0x00c000,,0.00e-0
1663837312,C;S;V;F,17.6,0x00c000,-34.2,0.00e-0
1663837313,C;S;V;F,17.6,0x00c000,-34.4,0.00e-0
1663837314,C;S;V;F,17.6,0x00c000,-34.5,0.00e-0
1663837315,C;S;V;F,17.2,0x00c000,-34.6,0.00e-0
1663837316,C;S;V;F,17.3,0x00c000,-34.8,0.00e-0
1663837317,C;S;V;F,17.2,0x00c000,-34.7,0.00e-0
1663837318,C;S;V;F,17.2,0x00c000,-34.8,0.00e-0
1663837321,,,0x00c000,-35.5,
1663837322,C;S;V;F,16.9,0x00c000,,0.00e-0
1663837323,C;S;V;F,16.7,0x00c000,-35.5,0.00e-0
1663837324,C;S;V;F,16.7,0x00c000,-35.6,0.00e-0
1663837325,C;S;V;F,16.5,0x00c000,-35.8,0.00e-0
1663837326,C;S;V;F,16.6,0x00c000,-35.9,0.00e-0
1663837327,C;S;V;F,16.5,0x00c000,-35.8,0.00e-0
1663837328,C;S;V;F,16.5,0x00c000,-35.6,0.00e-0
1663837329,C;S;V;F,16.7,0x00c000,-35.5,0.00e-0
1663837330,C;S;V;F,16.8,0x00c000,-35.6,0.00e-0
1663837331,C;S;V;F,16.5,0x00c000,-35.8,
1663837332,,16.3,0x00c000,-35.9,0.00e-0
1663837333,C;S;V;F,,,,0.00e-0
1663837335,C;S;V;F,16.4,0x00c000,-35.7,0.00e-0
1663837336,C;S;V;F,16.4,0x00c000,-35.8,0.00e-0
1663837337,C;S;V;F,16.3,0x00c000,-35.9,0.00e-0
1663837338,C;S;V;F,16.3,0x00c000,-36.0,0.00e-0
1663837339,C;S;V;F,16.3,0x00c000,-36.4,0.00e-0
1663837340,C;S;V;F,16.1,0x00c000,-36.2,0.00e-0
1663837341,C;S;V;F,16.3,0x00c000,-36.2,
1663837342,,16.4,0x00c000,-35.7,0.00e-0
1663837343,C;S;V;F,16.7,0x00c000,-35.9,0.00e-0
1663837344,C;S;V;F,16.6,0x00c000,-35.6,0.00e-0
1663837345,C;S;V;F,16.7,0x00c000,-35.3,0.00e-0
1663837346,C;S;V;F,,0x00c000,-35.6,0.00e-0
1663837347,C;S;V;F,16.6,0x00c000,,0.00e-0
1663837348,C;S;V;F,16.7,0x00c000,-35.6,0.00e-0
1663837349,C;S;V;F,16.5,0x00c000,-35.8,0.00e-0
1663837350,C;S;V;F,16.2,0x00c000,-36.2,0.00e-0
1663837351,C;S;V;F,16.2,0x00c000,-36.2,0.00e-0
1663837352,C;S;V;F,16.2,0x00c000,-36.3,0.00e-0
1663837353,C;S;V;F,15.8,0x00c000,-36.4,0.00e-0
1663837354,C;S;V;F,16.2,0x00c000,-36.0,0.00e-0
1663837355,C;S;V;F,16.1,0x00c000,-35.9,0.00e-0
1663837356,C;S;V;F,16.2,0x00c000,-35.7,0.00e-0
1663837357,C;S;V;F,16.4,0x00c000,-35.5,0.00e-0
1663837358,C;S;V;F,16.6,0x00c000,-35.4,0.00e-0
1663837359,,16.7,0x00c000,-35.7,
1663837360,C;S;V;F,16.7,0x00c000,-35.6,0.00e-0
1663837361,C;S;V;F,16.5,0x00c000,-35.7,0.00e-0
1663837362,C;S;V;F,,0x00c000,-35.5,0.00e-0
1663837363,C;S;V;F,16.5,0x00c000,-35.4,0.00e-0
1663837364,C;S;V;F,17.1,0x00c000,,0.00e-0
1663837365,C;S;V;F,16.9,0x00c000,-35.2,0.00e-0
1663837366,C;S;V;F,17.3,0x00c000,-34.9,0.00e-0
1663837367,C;S;V;F,17.4,0x00c000,-34.7,0.00e-0
1663837368,C;S;V;F,17.4,0x00c000,-34.6,0.00e-0
1663837369,C;S;V;F,17.6,0x00c000,-34.4,0.00e-0
1663837370,C;S;V;F,17.6,0x00c000,-34.4,0.00e-0
1663837371,C;S;V;F,17.5,0x00c000,-34.4,0.00e-0
1663837372,C;S;V;F,17.5,0x00c000,-34.4,0.00e-0
1663837373,C;S;V;F,17.7,0x00c000,-34.1,
1663837374,,17.8,0x00c000,-34.0,0.00e-0
1663837375,C;S;V;F,17.9,0x00c000,-33.8,0.00e-0
1663837376,C;S;V;F,17.8,0x00c000,-33.9,0.00e-0
1663837377,C;S;V;F,,0x00c000,-33.8,0.00e-0
1663837378,C;S;V;F,18.0,0x00c000,-33.8,0.00e-0
1663837379,C;S;V;F,18.1,0x00c000,,0.00e-0
1663837380,C;S;V;F,18.1,0x00c000,-33.3,0.00e-0
1663837381,C;S;V;F,18.3,0x00c000,-33.2,0.00e-0
1663837382,C;S;V;F,18.3,0x00c000,-33.2,0.00e-0
1663837383,C;S;V;F,18.3,0x00c000,-33.2,0.00e-0
1663837384,C;S;V;F,18.3,0x00c000,-33.1,0.00e-0
1663837385,C;S;V;F,18.5,0x00c000,-33.1,0.00e-0
1663837386,C;S;V;F,18.2,0x00c000,-32.9,0.00e-0
1663837387,C;S;V;F,18.5,0x00c000,-33.1,0.00e-0
1663837388,C;S;V;F,18.5,0x00c000,-33.0,0.00e-0
1663837389,C;S;V;F,18.4,0x00c000,-32.9,
1663837390,C;S;V;F,18.5,0x00c000,-33.1,0.00e-0
1663837391,,18.4,0x00c000,-33.0,0.00e-0
1663837392,C;S;V;F,18.5,0x00c000,-32.9,0.00e-0
1663837393,C;S;V;F,18.7,0x00c000,-32.9,0.00e-0
1663837394,C;S;V;F,18.4,0x00c000,-33.0,0.00e-0
1663837395,C;S;V;F,18.3,0x00c000,-33.2,0.00e-0
1663837396,C;S;V;F,,0x00c000,,0.00e-0
1663837397,,,0x00c000,-33.2,
1663837398,C;S;V;F,18.3,0x00c000,-33.3,0.00e-0
1663837399,C;S;V;F,18.3,0x00c000,,0.00e-0
1663837400,C;S;V;F,18.3,0x00c000,-33.3,0.00e-0
1663837401,C;S;V;F,18.3,0x00c000,-33.4,0.00e-0
1663837402,C;S;V;F,18.4,0x00c000,-33.3,0.00e-0
1663837403,C;S;V;F,18.4,0x00c000,-33.4,0.00e-0
1663837404,C;S;V;F,18.4,0x00c000,-33.3,0.00e-0
1663837405,C;S;V;F,18.4,0x00c000,-33.4,0.00e-0
1663837406,C;S;V;F,18.3,0x00c000,-33.7,0.00e-0
1663837407,C;S;V;F,17.9,0x00c000,-33.9,0.00e-0
1663837408,C;S;V;F,18.0,0x00c000,-34.1,0.00e-0
1663837409,C;S;V;F,17.9,0x00c000,-34.2,
1663837410,,17.7,0x00c000,-34.3,0.00e-0
1663837411,C;S;V;F,17.5,0x00c000,-34.4,0.00e-0
1663837412,C;S;V;F,17.6,0x00c000,-34.4,0.00e-0
1663837413,C;S;V;F,17.5,0x00c000,-34.6,0.00e-0
1663837414,C;S;V;F,17.5,0x00c000,-34.7,0.00e-0
1663837415,C;S;V;F,,0x00c000,-34.8,0.00e-0
1663837416,C;S;V;F,17.5,0x00c000,-34.5,0.00e-0
1663837417,C;S;V;F,17.6,0x00c000,,0.00e-0
1663837418,C;S;V;F,17.6,0x00c000,-34.7,0.00e-0
1663837419,C;S;V;F,17.5,0x00c000,-34.6,0.00e-0
1663837420,C;S;V;F,17.3,0x00c000,-34.7,0.00e-0
1663837421,C;S;V;F,17.1,0x00c000,-34.9,0.00e-0
1663837422,C;S;V;F,17.2,0x00c000,-35.1,0.00e-0
1663837423,C;S;V;F,17.0,0x00c000,-35.2,0.00e-0
1663837424,C;S;V;F,17.0,0x00c000,-35.3,0.00e-0
1663837425,C;S;V;F,16.7,0x00c000,-35.4,0.00e-0
1663837426,C;S;V;F,16.6,0x00c000,-35.5,0.00e-0
1663837427,C;S;V;F,16.8,0x00c000,-35.3,0.00e-0
1663837428,C;S;V;F,16.8,0x00c000,-35.4,
1663837429,,16.8,0x00c000,-35.2,0.00e-0
1663837430,C;S;V;F,16.6,0x00c000,-35.2,0.00e-0
1663837431,C;S;V;F,16.8,0x00c000,-35.2,0.00e-0
1663837432,C;S;V;F,,0x00c000,-35.4,0.00e-0
1663837433,C;S;V;F,16.6,0x00c000,-35.6,0.00e-0
1663837434,C;S;V;F,16.7,0x00c000,,0.00e-0
1663837435,C;S;V;F,16.6,0x00c000,-35.8,0.00e-0
1663837436,C;S;V;F,16.2,0x00c000,-36.0,0.00e-0
1663837437,C;S;V;F,16.4,0x00c000,-36.0,0.00e-0
1663837438,C;S;V;F,16.4,0x00c000,-35.7,0.00e-0
1663837439,C;S;V;F,16.5,0x00c000,-35.7,0.00e-0
1663837440,C;S;V;F,16.4,0x00c000,-35.5,0.00e-0
1663837441,C;S;V;F,16.7,0x00c000,-35.5,0.00e-0
1663837442,C;S;V;F,16.7,0x00c000,-35.2,
1663837443,,16.9,0x00c000,-35.1,0.00e-0
1663837444,C;S;V;F,17.1,0x00c000,-35.2,0.00e-0
1663837445,C;S;V;F,16.9,0x00c000,-35.4,0.00e-0
1663837446,C;S;V;F,16.4,0x00c000,-35.8,0.00e-0
1663837447,C;S;V;F,16.3,0x00c000,-36.3,0.00e-0
1663837448,C;S;V;F,,0x00c000,,0.00e-0
1663837449,C;S;V;F,16.1,0x00c000,-36.1,0.00e-0
1663837450,C;S;V;F,16.3,0x00c000,-35.9,0.00e-0
1663837451,C;S;V;F,16.4,0x00c000,-35.7,0.00e-0
1663837452,C;S;V;F,16.7,0x00c000,-35.3,0.00e-0
1663837453,C;S;V;F,16.9,0x00c000,-35.2,0.00e-0
1663837454,C;S;V;F,16.7,0x00c000,-35.4,0.00e-0
1663837455,C;S;V;F,16.6,0x00c000,-35.3,0.00e-0
1663837456,,16.6,0x00c000,-35.3,
1663837457,C;S;V;F,16.7,0x00c000,-35.6,0.00e-0
1663837458,C;S;V;F,,,,0.00e-0
1663837459,,16.6,0x00c000,-35.6,
1663837460,C;S;V;F,16.5,0x00c000,-35.6,0.00e-0
1663837461,C;S;V;F,,0x00c000,-35.3,0.00e-0
1663837462,C;S;V;F,16.6,0x00c000,-35.2,0.00e-0
1663837463,C;S;V;F,16.9,0x00c000,,0.00e-0
1663837464,C;S;V;F,17.1,0x00c000,-35.0,0.00e-0
1663837465,C;S;V;F,17.1,0x00c000,-35.0,0.00e-0
1663837466,C;S;V;F,16.9,0x00c000,-35.1,0.00e-0
1663837467,C;S;V;F,17.0,0x00c000,-35.1,0.00e-0
1663837468,C;S;V;F,17.1,0x00c000,-35.3,0.00e-0
1663837469,C;S;V;F,17.1,0x00c000,-35.0,0.00e-0
1663837470,C;S;V;F,17.1,0x00c000,-35.1,0.00e-0
1663837471,C;S;V;F,17.0,0x00c000,-35.0,
1663837472,,17.0,0x00c000,-35.2,0.00e-0
1663837473,C;S;V;F,17.0,0x00c000,-35.1,0.00e-0
1663837474,C;S;V;F,17.1,0x00c000,-35.1,0.00e-0
1663837475,C;S;V;F,17.1,0x00c000,-35.1,0.00e-0
1663837476,C;S;V;F,,0x00c000,-35.0,0.00e-0
1663837477,C;S;V;F,17.1,0x00c000,-34.8,0.00e-0
1663837478,C;S;V;F,17.2,0x00c000,,0.00e-0
1663837479,C;S;V;F,17.2,0x00c000,-35.0,0.00e-0
1663837480,C;S;V;F,17.0,0x00c000,-35.0,0.00e-0
1663837481,C;S;V;F,17.2,0x00c000,-35.0,0.00e-0
1663837482,C;S;V;F,16.8,0x00c000,-35.0,0.00e-0
1663837483,C;S;V;F,16.9,0x00c000,-35.0,0.00e-0
1663837484,C;S;V;F,16.9,0x00c000,-35.0,0.00e-0
1663837485,C;S;V;F,16.8,0x00c000,-35.1,0.00e-0
1663837486,C;S;V;F,17.0,0x00c000,-35.3,0.00e-0
1663837487,C;S;V;F,17.0,0x00c000,-35.0,0.00e-0
1663837488,C;S;V;F,17.1,0x00c000,-35.2,0.00e-0
1663837489,C;S;V;F,17.1,0x00c000,-34.9,0.00e-0
1663837490,C;S;V;F,17.1,0x00c000,-35.0,
1663837491,,17.0,0x00c000,-35.1,0.00e-0
1663837492,C;S;V;F,16.9,0x00c000,-35.2,0.00e-0
1663837493,C;S;V;F,16.9,0x00c000,-35.3,0.00e-0
1663837494,C;S;V;F,,0x00c000,-35.3,0.00e-0
1663837495,C;S;V;F,16.6,0x00c000,-35.5,0.00e-0
1663837496,C;S;V;F,16.6,0x00c000,,0.00e-0
1663837497,C;S;V;F,16.8,0x00c000,-35.4,0.00e-0
1663837498,C;S;V;F,16.8,0x00c000,-35.1,0.00e-0
1663837499,C;S;V;F,17.0,0x00c000,-35.1,0.00e-0
1663837500,C;S;V;F,17.0,0x00c000,-35.2,0.00e-0
1663837501,C;S;V;F,17.0,0x00c000,-35.1,0.00e-0
1663837502,C;S;V;F,16.8,0x00c000,-35.0,0.00e-0
1663837503,C;S;V;F,16.9,0x00c000,-35.1,0.00e-0
1663837504,C;S;V;F,16.9,0x00c000,-35.2,0.00e-0
1663837505,C;S;V;F,16.7,0x00c000,-35.2,0.00e-0
1663837506,C;S;V;F,16.8,0x00c000,-35.2,0.00e-0
1663837507,,16.9,0x00c000,-35.4,
1663837508,C;S;V;F,16.7,0x00c000,-35.3,0.00e-0
1663837509,C;S;V;F,,0x00c000,-35.1,0.00e-0
1663837510,C;S;V;F,16.8,0x00c000,-35.2,0.00e-0
1663837511,C;S;V;F,17.0,0x00c000,,0.00e-0
1663837512,C;S;V;F,17.0,0x00c000,-34.9,0.00e-0
1663837513,C;S;V;F,17.3,0x00c000,-34.8,0.00e-0
1663837514,C;S;V;F,17.2,0x00c000,-35.0,0.00e-0
1663837515,C;S;V;F,17.1,0x00c000,-34.6,0.00e-0
1663837516,C;S;V;F,17.2,0x00c000,-34.7,0.00e-0
1663837517,C;S;V;F,17.2,0x00c000,-34.7,
1663837518,,17.2,0x00c000,-34.9,0.00e-0
1663837519,C;S;V;F,17.2,0x00c000,-34.6,0.00e-0
1663837520,C;S;V;F,,,,0.00e-0
1663837521,C;S;V;F,17.3,0x00c000,-34.8,0.00e-0
1663837523,C;S;V;F,17.1,0x00c000,-34.7,0.00e-0
1663837524,C;S;V;F,17.3,0x00c000,-34.6,0.00e-0
1663837525,C;S;V;F,17.4,0x00c000,-34.6,0.00e-0
1663837526,C;S;V;F,17.4,0x00c000,-34.5,
1663837527,,17.3,0x00c000,-34.5,0.00e-0
1663837528,C;S;V;F,17.3,0x00c000,-34.3,0.00e-0
1663837529,C;S;V;F,17.5,0x00c000,-34.3,0.00e-0
1663837530,C;S;V;F,,0x00c000,-34.2,0.00e-0
1663837531,C;S;V;F,17.6,0x00c000,-34.2,0.00e-0
1663837532,C;S;V;F,17.6,0x00c000,,0.00e-0
1663837533,C;S;V;F,17.6,0x00c000,-34.1,0.00e-0
1663837534,C;S;V;F,17.4,0x00c000,-34.2,0.00e-0
1663837535,C;S;V;F,17.6,0x00c000,-34.3,0.00e-0
1663837536,C;S;V;F,17.5,0x00c000,-34.3,0.00e-0
1663837537,C;S;V;F,17.6,0x00c000,-34.4,0.00e-0
1663837538,C;S;V;F,17.3,0x00c000,-34.4,0.00e-0
1663837539,C;S;V;F,17.3,0x00c000,-34.4,0.00e-0
1663837540,C;S;V;F,17.6,0x00c000,-34.3,0.00e-0
1663837541,C;S;V;F,17.4,0x00c000,-34.3,0.00e-0
1663837542,C;S;V;F,17.6,0x00c000,-34.1,0.00e-0
1663837543,C;S;V;F,17.4,0x00c000,-34.3,0.00e-0
1663837544,C;S;V;F,17.4,0x00c000,-34.3,
1663837545,,17.3,0x00c000,-34.3,0.00e-0
1663837546,C;S;V;F,17.5,0x00c000,-34.2,0.00e-0
1663837547,C;S;V;F,17.4,0x00c000,-34.2,0.00e-0
1663837548,C;S;V;F,,0x00c000,-34.1,0.00e-0
1663837549,C;S;V;F,17.4,0x00c000,,0.00e-0
1663837550,C;S;V;F,17.5,0x00c000,-34.0,0.00e-0
1663837551,C;S;V;F,17.7,0x00c000,-34.0,0.00e-0
1663837552,C;S;V;F,17.6,0x00c000,-34.0,0.00e-0
1663837553,C;S;V;F,17.4,0x00c000,-34.2,0.00e-0
1663837554,C;S;V;F,17.3,0x00c000,-34.4,0.00e-0
1663837555,C;S;V;F,17.3,0x00c000,-34.4,0.00e-0
1663837556,C;S;V;F,17.4,0x00c000,-34.4,0.00e-0
1663837557,C;S;V;F,17.3,0x00c000,-34.5,0.00e-0
1663837558,,17.1,0x00c000,-34.6,
1663837559,C;S;V;F,17.1,0x00c000,-34.8,0.00e-0
1663837560,C;S;V;F,17.0,0x00c000,-34.7,0.00e-0
1663837561,C;S;V;F,17.2,0x00c000,-34.8,0.00e-0
1663837562,C;S;V;F,,0x00c000,-34.9,0.00e-0
1663837563,C;S;V;F,16.8,0x00c000,-35.1,0.00e-0
1663837564,C;S;V;F,16.8,0x00c000,-35.0,0.00e-0